GW2481 Weather Reports


time (UTC)temp
C
wind
direction
speed
KPH
gust
KPH
rain 1hr
cm
rain 24hr
cm
rain mn
cm
humidity
%
barometer
mb
20260506081503 12 34 0.0 4.8 0.00 0.00 0.00 70 1017.3
20260506081005 12 355 0.0 4.8 0.00 0.00 0.00 69 1017.3
20260506080504 12 107 3.2 0.0 0.00 0.00 0.00 68 1017.3
20260506073505 15 188 4.8 8.0 0.00 0.00 0.00 60 1017.0
20260506072504 15 321 8.0 11.3 0.00 0.00 0.00 59 1016.7
20260506071503 15 328 8.0 16.1 0.00 0.00 0.00 60 1016.6
20260506071004 15 353 4.8 9.7 0.00 0.00 0.00 60 1016.6
20260506070505 15 343 8.0 9.7 0.00 0.00 0.00 61 1016.6
20260506062005 15 352 3.2 3.2 0.00 0.00 0.00 61 1016.4
20260506061504 15 290 3.2 9.7 0.00 0.00 0.00 61 1016.1
20260506061005 15 1 3.2 8.0 0.00 0.00 0.00 61 1016.1
20260506060504 15 289 4.8 9.7 0.00 0.00 0.00 61 1016.1
20260506051004 15 356 0.0 3.2 0.00 0.00 0.00 58 1015.6
20260506050505 16 0 3.2 0.0 0.00 0.00 0.00 56 1015.6
20260506044504 16 340 0.0 9.7 0.00 0.00 0.00 56 1015.3
20260506044003 16 349 0.0 4.8 0.00 0.00 0.00 56 1015.3
20260506043006 16 5 4.8 3.2 0.00 0.00 0.00 54 1015.2
20260506042004 16 6 4.8 3.2 0.00 0.00 0.00 54 1015.2
20260506041504 16 8 4.8 8.0 0.00 0.00 0.00 54 1015.0
20260506041003 16 329 4.8 12.9 0.00 0.00 0.00 54 1015.0
20260506040004 17 337 8.0 11.3 0.00 0.00 0.00 55 1014.8
20260506035506 17 323 9.7 12.9 0.00 0.00 0.00 55 1014.8
20260506035004 17 316 9.7 16.1 0.00 0.00 0.00 56 1014.8
20260506034505 17 320 9.7 20.9 0.00 0.00 0.00 56 1014.5
20260506034004 17 326 9.7 22.5 0.00 0.00 0.00 56 1014.5
20260506033005 18 0 0.0 8.0 0.00 0.00 0.00 55 1014.3
20260506032506 18 274 9.7 8.0 0.00 0.00 0.00 55 1014.3
20260506032004 18 274 9.7 8.0 0.00 0.00 0.00 55 1014.3
20260506031505 18 274 9.7 14.5 0.00 0.00 0.00 55 1014.1
20260506031003 18 341 9.7 19.3 0.00 0.00 0.00 55 1014.1
20260506030504 18 334 8.0 16.1 0.00 0.00 0.00 56 1014.1
20260506030004 18 334 8.0 20.9 0.00 0.00 0.00 56 1013.8
20260506025504 18 330 9.7 25.7 0.00 0.00 0.00 55 1013.8
20260506025004 18 329 9.7 19.3 0.00 0.00 0.00 55 1013.8
20260506024005 20 316 9.7 4.8 0.00 0.00 0.00 52 1013.6
20260506023504 20 316 9.7 4.8 0.00 0.00 0.00 52 1013.6
20260506022504 20 345 9.7 24.1 0.00 0.00 0.00 51 1013.5
20260506022004 20 334 9.7 22.5 0.00 0.00 0.00 51 1013.5
20260506021504 20 330 12.9 20.9 0.00 0.00 0.00 51 1013.4
20260506020506 20 300 11.3 27.4 0.00 0.00 0.00 50 1013.4
20260506020004 21 335 11.3 22.5 0.00 0.00 0.00 49 1013.3
20260506015505 21 331 12.9 24.1 0.00 0.00 0.00 47 1013.3
20260506014505 21 322 12.9 22.5 0.00 0.00 0.00 46 1013.2
20260506014006 21 355 12.9 24.1 0.00 0.00 0.00 46 1013.2
20260506013504 21 340 12.9 24.1 0.00 0.00 0.00 46 1013.2
20260506013003 21 316 12.9 22.5 0.00 0.00 0.00 46 1013.1
20260506012504 21 331 11.3 27.4 0.00 0.00 0.00 46 1013.1
20260506012005 22 335 11.3 25.7 0.00 0.00 0.00 46 1013.1
20260506011004 22 324 12.9 29.0 0.00 0.00 0.00 46 1013.0
20260506010505 22 297 11.3 25.7 0.00 0.00 0.00 45 1013.0
20260506010004 22 327 11.3 24.1 0.00 0.00 0.00 46 1013.0
20260506005504 22 337 9.7 27.4 0.00 0.00 0.00 47 1013.0
20260506004504 22 335 12.9 16.1 0.00 0.00 0.00 47 1013.0
20260506004005 22 334 12.9 29.0 0.00 0.00 0.00 47 1013.0
20260506003504 22 336 12.9 29.0 0.00 0.00 0.00 46 1013.0
20260506003005 22 313 12.9 22.5 0.00 0.00 0.00 45 1012.9
20260506002503 23 319 11.3 11.3 0.00 0.00 0.00 42 1012.9
20260506002005 23 319 11.3 11.3 0.00 0.00 0.00 42 1012.9
20260506001504 23 319 11.3 20.9 0.00 0.00 0.00 42 1012.9
20260506000004 23 337 9.7 8.0 0.00 0.00 0.00 39 1012.7
20260505235505 23 337 9.7 8.0 0.00 0.00 0.00 39 1012.7
20260505235004 23 337 9.7 16.1 0.00 0.00 0.00 39 1012.7
20260505234504 23 346 9.7 19.3 0.00 0.00 0.00 37 1012.7
20260505234004 23 344 9.7 19.3 0.00 0.00 0.00 38 1012.7
20260505233504 24 335 8.0 25.7 0.00 0.00 0.00 37 1012.7
20260505233005 24 306 8.0 16.1 0.00 0.00 0.00 38 1012.6
20260505232504 24 317 9.7 19.3 0.00 0.00 0.00 37 1012.6
20260505232005 24 321 9.7 20.9 0.00 0.00 0.00 37 1012.6
20260505231504 24 337 8.0 24.1 0.00 0.00 0.00 37 1012.7
20260505230504 24 336 11.3 16.1 0.00 0.00 0.00 37 1012.7
20260505230004 24 350 11.3 16.1 0.00 0.00 0.00 37 1012.8
20260505225505 23 307 9.7 20.9 0.00 0.00 0.00 37 1012.8
20260505225004 24 339 6.4 20.9 0.00 0.00 0.00 36 1012.8
20260505224505 24 0 3.2 3.2 0.00 0.00 0.00 37 1012.8
20260505224004 24 41 9.7 3.2 0.00 0.00 0.00 37 1012.8
20260505223506 24 41 9.7 3.2 0.00 0.00 0.00 37 1012.8
20260505222504 24 283 8.0 24.1 0.00 0.00 0.00 37 1012.7
20260505222004 24 343 8.0 16.1 0.00 0.00 0.00 36 1012.7
20260505221504 23 337 8.0 4.8 0.00 0.00 0.00 40 1012.9
20260505221005 23 337 8.0 4.8 0.00 0.00 0.00 40 1012.9
20260505220503 23 337 8.0 14.5 0.00 0.00 0.00 40 1012.9
20260505220005 23 336 6.4 19.3 0.00 0.00 0.00 40 1012.9
20260505215504 23 270 8.0 9.7 0.00 0.00 0.00 38 1012.9
20260505215005 23 270 8.0 9.7 0.00 0.00 0.00 38 1012.9
20260505214504 23 270 8.0 9.7 0.00 0.00 0.00 38 1013.0
20260505213503 23 338 8.0 19.3 0.00 0.00 0.00 38 1013.0
20260505213004 23 292 8.0 16.1 0.00 0.00 0.00 39 1013.1
20260505212506 23 316 4.8 14.5 0.00 0.00 0.00 40 1013.1
20260505212004 22 311 4.8 20.9 0.00 0.00 0.00 41 1013.1
20260505211504 22 322 4.8 12.9 0.00 0.00 0.00 39 1013.2
20260505211004 23 28 9.7 11.3 0.00 0.00 0.00 40 1013.2
20260505210504 23 28 9.7 11.3 0.00 0.00 0.00 40 1013.2
20260505210006 23 28 9.7 16.1 0.00 0.00 0.00 40 1013.3
20260505205503 23 345 4.8 22.5 0.00 0.00 0.00 38 1013.3
20260505205004 22 0 0.0 3.2 0.00 0.00 0.00 39 1013.3
20260505204505 22 243 9.7 3.2 0.00 0.00 0.00 39 1013.3
20260505203507 22 243 9.7 12.9 0.00 0.00 0.00 39 1013.3
20260505203003 22 311 9.7 19.3 0.00 0.00 0.00 41 1013.4
20260505202504 22 309 8.0 20.9 0.00 0.00 0.00 40 1013.4
20260505202003 22 337 8.0 19.3 0.00 0.00 0.00 40 1013.4
20260505201504 22 271 11.3 19.3 0.00 0.00 0.00 40 1013.5
20260505201005 22 301 11.3 24.1 0.00 0.00 0.00 40 1013.5
20260505195503 21 308 9.7 19.3 0.00 0.00 0.00 41 1013.4
20260505194505 21 355 6.4 11.3 0.00 0.00 0.00 40 1013.4
20260505194003 21 354 8.0 11.3 0.00 0.00 0.00 40 1013.4
20260505193505 21 354 8.0 11.3 0.00 0.00 0.00 40 1013.4
20260505193004 21 347 8.0 14.5 0.00 0.00 0.00 40 1013.3
20260505192505 21 0 9.7 19.3 0.00 0.00 0.00 39 1013.3
20260505192003 21 14 4.8 11.3 0.00 0.00 0.00 41 1013.3
20260505191504 21 35 8.0 4.8 0.00 0.00 0.00 39 1013.4
20260505191003 21 35 8.0 4.8 0.00 0.00 0.00 39 1013.4
20260505190504 21 35 8.0 16.1 0.00 0.00 0.00 39 1013.4
20260505185504 21 200 8.0 16.1 0.00 0.00 0.00 39 1013.4
20260505185005 21 335 8.0 12.9 0.00 0.00 0.00 40 1013.4
20260505184504 22 285 8.0 14.5 0.00 0.00 0.00 39 1013.4
20260505184004 21 283 4.8 11.3 0.00 0.00 0.00 42 1013.4
20260505183505 21 43 4.8 8.0 0.00 0.00 0.00 42 1013.4
20260505182505 21 43 4.8 16.1 0.00 0.00 0.00 42 1013.5
20260505182004 21 344 4.8 12.9 0.00 0.00 0.00 42 1013.5
20260505181504 20 302 3.2 12.9 0.00 0.00 0.00 42 1013.6
20260505180504 20 310 4.8 8.0 0.00 0.00 0.00 41 1013.6
20260505180004 20 291 4.8 9.7 0.00 0.00 0.00 42 1013.6
20260505175503 19 266 8.0 11.3 0.00 0.00 0.00 42 1013.6
20260505175003 19 275 8.0 9.7 0.00 0.00 0.00 44 1013.6
20260505174503 19 352 4.8 16.1 0.00 0.00 0.00 42 1013.6
20260505174006 19 274 4.8 11.3 0.00 0.00 0.00 45 1013.6
20260505172505 18 317 3.2 9.7 0.00 0.00 0.00 43 1013.6
20260505172004 18 347 3.2 8.0 0.00 0.00 0.00 44 1013.6
20260505171003 17 325 8.0 8.0 0.00 0.00 0.00 45 1013.6
20260505170504 17 325 8.0 14.5 0.00 0.00 0.00 45 1013.6
20260505170005 17 339 8.0 9.7 0.00 0.00 0.00 46 1013.7
20260505165004 17 335 4.8 12.9 0.00 0.00 0.00 46 1013.7
20260505164504 17 298 3.2 9.7 0.00 0.00 0.00 49 1013.6
20260505164004 17 298 3.2 9.7 0.00 0.00 0.00 49 1013.6
20260505163506 17 298 3.2 9.7 0.00 0.00 0.00 49 1013.6
20260505162504 16 303 3.2 11.3 0.00 0.00 0.00 51 1013.6
20260505162004 16 310 3.2 9.7 0.00 0.00 0.00 54 1013.6
20260505161004 15 340 1.6 4.8 0.00 0.00 0.00 57 1013.7
20260505160507 15 336 3.2 3.2 0.00 0.00 0.00 57 1013.7
20260505153005 13 267 3.2 8.0 0.00 0.00 0.00 62 1013.6
20260505152504 13 217 3.2 8.0 0.00 0.00 0.00 66 1013.6
20260505152004 13 134 3.2 8.0 0.00 0.00 0.00 67 1013.6
20260505151504 12 152 3.2 8.0 0.00 0.00 0.00 68 1013.5
20260505151004 12 137 3.2 4.8 0.00 0.00 0.00 71 1013.5
20260505125004 8 109 3.2 4.8 0.00 0.00 0.00 67 1012.5
20260505124006 10 339 3.2 9.7 0.00 0.00 0.00 65 1012.4
20260505123504 11 321 3.2 3.2 0.00 0.00 0.00 61 1012.4
20260505123003 11 321 3.2 3.2 0.00 0.00 0.00 61 1012.2
20260505122504 11 321 3.2 8.0 0.00 0.00 0.00 61 1012.2
20260505122004 11 338 3.2 8.0 0.00 0.00 0.00 61 1012.2
20260505121503 11 324 3.2 9.7 0.00 0.00 0.00 62 1012.2
20260505121005 11 324 3.2 4.8 0.00 0.00 0.00 62 1012.2
20260505120504 11 299 4.8 11.3 0.00 0.00 0.00 63 1012.2
20260505115503 11 333 3.2 8.0 0.00 0.00 0.00 63 1012.0
20260505115004 11 333 3.2 8.0 0.00 0.00 0.00 63 1012.0
20260505114504 11 333 3.2 8.0 0.00 0.00 0.00 63 1012.0
20260505114004 11 303 3.2 9.7 0.00 0.00 0.00 63 1012.0
20260505113504 11 346 3.2 8.0 0.00 0.00 0.00 62 1012.0
20260505113006 11 316 3.2 8.0 0.00 0.00 0.00 62 1011.9
20260505112504 11 313 3.2 8.0 0.00 0.00 0.00 62 1011.9
20260505112004 11 0 3.2 4.8 0.00 0.00 0.00 62 1011.9
20260505111004 12 0 1.6 4.8 0.00 0.00 0.00 61 1011.7
20260505110504 12 356 3.2 4.8 0.00 0.00 0.00 61 1011.7
20260505102004 12 331 3.2 14.5 0.00 0.00 0.00 56 1011.8
20260505101505 12 335 3.2 9.7 0.00 0.00 0.00 54 1011.8
20260505101004 12 0 0.0 4.8 0.00 0.00 0.00 53 1011.8
20260505100504 12 321 3.2 4.8 0.00 0.00 0.00 53 1011.8
20260505100003 12 321 3.2 4.8 0.00 0.00 0.00 53 1011.8
20260505095505 12 321 3.2 11.3 0.00 0.00 0.00 53 1011.8
20260505095004 12 335 3.2 11.3 0.00 0.00 0.00 51 1011.8
20260505094505 12 132 3.2 8.0 0.00 0.00 0.00 52 1011.8
20260505094004 12 335 3.2 8.0 0.00 0.00 0.00 54 1011.8
20260505093504 12 318 3.2 8.0 0.00 0.00 0.00 55 1011.8
20260505093004 12 245 3.2 11.3 0.00 0.00 0.00 53 1011.7
20260505092504 12 283 3.2 12.9 0.00 0.00 0.00 57 1011.7
20260505092005 12 278 3.2 3.2 0.00 0.00 0.00 60 1011.7
20260505091504 12 265 3.2 11.3 0.00 0.00 0.00 58 1011.7
20260505091004 12 216 3.2 8.0 0.00 0.00 0.00 57 1011.7
20260505090506 12 262 3.2 9.7 0.00 0.00 0.00 61 1011.7
20260505090004 12 237 3.2 4.8 0.00 0.00 0.00 62 1011.8
20260505085504 12 211 3.2 8.0 0.00 0.00 0.00 62 1011.8
20260505085004 12 251 3.2 9.7 0.00 0.00 0.00 62 1011.8
20260505084504 12 242 3.2 8.0 0.00 0.00 0.00 63 1011.8
20260505084005 12 223 3.2 9.7 0.00 0.00 0.00 63 1011.8
20260505083504 12 211 3.2 3.2 0.00 0.00 0.00 62 1011.8
20260505082003 13 211 3.2 9.7 0.00 0.00 0.00 62 1011.8